Covington, KY

3:55 AM EST on December 11, 2019 (GMT -0500)
Cincinnati-Northern KY International

Weather History for KCVG - October, 2019

Change the Weather History Date:

Sunday, October 20, 2019

  Actual Average Record
Temperature  
Mean Temperature 64 °F 54 °F  
Max Temperature 75 °F 65 °F 86 °F (1953)
Min Temperature 53 °F 44 °F 25 °F (1972)
Degree Days  
Heating Degree Days 0 11  
Month to date heating degree days 114 165  
Since 1 July heating degree days 114 223  
Cooling Degree Days 0 0  
Month to date cooling degree days 54 16  
Year to date cooling degree days 1496 1121  
Growing Degree Days 14 (Base 50)    
Moisture  
Dew Point 51 °F    
Average Humidity 69    
Maximum Humidity 87    
Minimum Humidity 41    
Precipitation  
Precipitation 0.00 in 0.10 in 4.30 in (1985)
Month to date precipitation 1.11 2.13  
Year to date precipitation 43.53 34.55  
Snow  
Snow 0.00 in 0.00 in 0.90 in (1989)
Month to date snowfall 0.0 0.2  
Since 1 July snowfall 0.0 0.2  
Since 1 September snowfall 0.0 0.2  
Snow Depth 0.00 in    
Sea Level Pressure  
Sea Level Pressure 29.86 in    
Wind  
Wind Speed 3 mph ()    
Max Wind Speed 10 mph    
Max Gust Speed 12 mph    
Visibility 10.0 miles    
Events      
T = Trace of Precipitation, MM = Missing Value Source: Averaged Metar Reports

Daily Weather History Graph

Daily Weather History Graph

Search for Another Location

Airport or City:

Astronomy

Oct. 20, 2019 Rise Set
Actual Time 7:53 AM EDT 6:53 PM EDT
Civil Twilight 7:25 AM EDT 7:20 PM EDT
Nautical Twilight 6:54 AM EDT 7:51 PM EDT
Astronomical Twilight 6:23 AM EDT 8:22 PM EDT
Moon No Moon Rise 2:18 PM EDT (10/20)
Length of Visible Light 11h 54m
Length of Day
11h 00m
Waning Gibbous, 59% of the Moon is Illuminated
Oct 20
Waning Gibbous
Oct 21
Last Quarter
Oct 27
New
Nov 4
First Quarter
Nov 12
Full

Hourly Weather History & Observations

Time (EDT) Temp. Dew Point Humidity Pressure Visibility Wind Dir Wind Speed Gust Speed Precip Events Conditions
12:52 AM 57.9 °F 45.0 °F 62% 29.80 in 10.0 mi South 8.1 mph - N/A   Mostly Cloudy
1:52 AM 57.9 °F 46.0 °F 65% 29.79 in 10.0 mi South 5.8 mph - N/A   Overcast
2:52 AM 57.9 °F 46.9 °F 67% 29.79 in 10.0 mi SSW 6.9 mph - N/A   Overcast
3:52 AM 55.9 °F 46.0 °F 69% 29.78 in 10.0 mi Calm Calm - N/A   Overcast
4:52 AM 54.0 °F 46.9 °F 77% 29.78 in 10.0 mi Calm Calm - N/A   Scattered Clouds
5:52 AM 57.0 °F 50.0 °F 77% 29.81 in 10.0 mi Calm Calm - N/A   Overcast
6:22 AM 57.0 °F 50.0 °F 77% 29.83 in 10.0 mi Calm Calm - N/A   Overcast
6:52 AM 57.0 °F 51.1 °F 81% 29.83 in 10.0 mi Calm Calm - N/A   Overcast
7:37 AM 57.0 °F 52.0 °F 83% 29.85 in 10.0 mi Calm Calm - N/A   Overcast
7:52 AM 57.0 °F 52.0 °F 83% 29.84 in 10.0 mi Calm Calm - N/A   Overcast
8:44 AM 57.0 °F 53.1 °F 87% 29.86 in 10.0 mi Calm Calm - N/A   Mostly Cloudy
8:52 AM 57.9 °F 53.1 °F 84% 29.86 in 10.0 mi Calm Calm - N/A   Mostly Cloudy
9:52 AM 60.1 °F 55.0 °F 83% 29.88 in 10.0 mi SW 3.5 mph - N/A   Mostly Cloudy
10:52 AM 64.0 °F 55.0 °F 73% 29.88 in 10.0 mi Calm Calm - N/A   Clear
11:52 AM 68.0 °F 54.0 °F 61% 29.89 in 10.0 mi Calm Calm - N/A   Partly Cloudy
12:52 PM 71.1 °F 52.0 °F 51% 29.88 in 10.0 mi NNE 4.6 mph - N/A   Partly Cloudy
1:52 PM 73.0 °F 51.1 °F 46% 29.87 in 10.0 mi Calm Calm - N/A   Scattered Clouds
2:52 PM 75.0 °F 50.0 °F 41% 29.86 in 10.0 mi North 3.5 mph - N/A   Scattered Clouds
3:52 PM 73.9 °F 48.9 °F 41% 29.86 in 10.0 mi SE 4.6 mph - N/A   Scattered Clouds
4:52 PM 73.9 °F 50.0 °F 43% 29.87 in 10.0 mi South 5.8 mph - N/A   Mostly Cloudy
5:52 PM 72.0 °F 50.0 °F 46% 29.87 in 10.0 mi South 6.9 mph - N/A   Scattered Clouds
6:52 PM 68.0 °F 50.0 °F 52% 29.88 in 10.0 mi SSE 6.9 mph - N/A   Partly Cloudy
7:52 PM 63.0 °F 53.1 °F 70% 29.90 in 10.0 mi SSE 6.9 mph - N/A   Scattered Clouds
8:52 PM 62.1 °F 55.0 °F 78% 29.92 in 10.0 mi South 8.1 mph - N/A   Scattered Clouds
9:52 PM 61.0 °F 55.0 °F 81% 29.93 in 10.0 mi South 8.1 mph - N/A   Mostly Cloudy
10:52 PM 59.0 °F 55.0 °F 87% 29.94 in 10.0 mi South 9.2 mph - N/A   Partly Cloudy
11:52 PM 59.0 °F 55.0 °F 87% 29.94 in 10.0 mi South 8.1 mph - N/A   Partly Cloudy